| time (UTC) | temp F | wind direction | speed MPH | gust MPH | rain 1hr in | rain 24hr in | rain mn in | humidity % | barometer mb |
| 20260509194504 | 83 | 190 | 4.0 | 3.0 | 0.00 | 0.00 | 0.00 | 91 | 1009.0 |
| 20260509193003 | 83 | 190 | 4.0 | 3.0 | 0.00 | 0.00 | 0.00 | 92 | 1009.0 |
| 20260509191504 | 83 | 188 | 3.0 | 3.0 | 0.00 | 0.00 | 0.00 | 93 | 1009.0 |
| 20260509190004 | 83 | 188 | 3.0 | 3.0 | 0.00 | 0.00 | 0.00 | 92 | 1009.0 |
| 20260509184503 | 83 | 188 | 3.0 | 3.0 | 0.00 | 0.00 | 0.00 | 90 | 1009.0 |
| 20260509183003 | 83 | 188 | 3.0 | 3.0 | 0.00 | 0.00 | 0.00 | 90 | 1009.0 |
| 20260509181504 | 82 | 176 | 3.0 | 3.0 | 0.00 | 0.00 | 0.00 | 91 | 1010.0 |
| 20260509180004 | 82 | 176 | 3.0 | 3.0 | 0.00 | 0.00 | 0.00 | 91 | 1010.0 |
| 20260509174504 | 82 | 176 | 3.0 | 3.0 | 0.00 | 0.00 | 0.00 | 91 | 1010.0 |
| 20260509173004 | 82 | 180 | 4.0 | 4.0 | 0.00 | 0.00 | 0.00 | 90 | 1010.0 |
| 20260509171504 | 83 | 179 | 4.0 | 4.0 | 0.00 | 0.00 | 0.00 | 93 | 1010.0 |
| 20260509170004 | 83 | 179 | 4.0 | 4.0 | 0.00 | 0.00 | 0.00 | 91 | 1010.0 |
| 20260509164504 | 83 | 179 | 4.0 | 4.0 | 0.00 | 0.00 | 0.00 | 92 | 1010.0 |
| 20260509163003 | 83 | 179 | 4.0 | 4.0 | 0.00 | 0.00 | 0.00 | 92 | 1010.0 |
| 20260509161503 | 84 | 192 | 3.0 | 3.0 | 0.00 | 0.00 | 0.00 | 94 | 1010.0 |
| 20260509160003 | 83 | 192 | 3.0 | 3.0 | 0.00 | 0.00 | 0.00 | 92 | 1011.0 |
| 20260509154504 | 83 | 192 | 3.0 | 3.0 | 0.00 | 0.00 | 0.00 | 93 | 1010.0 |
| 20260509153004 | 83 | 192 | 3.0 | 3.0 | 0.00 | 0.00 | 0.00 | 93 | 1011.0 |
| 20260509151504 | 84 | 216 | 3.0 | 3.0 | 0.00 | 0.00 | 0.00 | 96 | 1010.0 |
| 20260509150004 | 83 | 216 | 3.0 | 3.0 | 0.00 | 0.00 | 0.00 | 93 | 1011.0 |
| 20260509144504 | 84 | 216 | 3.0 | 3.0 | 0.00 | 0.00 | 0.00 | 94 | 1010.0 |
| 20260509143004 | 84 | 216 | 3.0 | 3.0 | 0.00 | 0.00 | 0.00 | 93 | 1011.0 |
| 20260509141503 | 84 | 219 | 3.0 | 3.0 | 0.00 | 0.00 | 0.00 | 95 | 1010.0 |
| 20260509140004 | 84 | 219 | 3.0 | 3.0 | 0.00 | 0.00 | 0.00 | 90 | 1011.0 |
| 20260509134503 | 84 | 219 | 3.0 | 3.0 | 0.00 | 0.00 | 0.00 | 90 | 1010.0 |
| 20260509133004 | 84 | 219 | 3.0 | 3.0 | 0.00 | 0.00 | 0.00 | 90 | 1010.0 |
| 20260509131503 | 85 | 232 | 4.0 | 4.0 | 0.00 | 0.00 | 0.00 | 89 | 1010.0 |
| 20260509130003 | 85 | 232 | 4.0 | 4.0 | 0.00 | 0.00 | 0.00 | 90 | 1010.0 |
| 20260509124504 | 84 | 232 | 4.0 | 4.0 | 0.00 | 0.00 | 0.00 | 85 | 1010.0 |
| 20260509123016 | 84 | 310 | 10.0 | 0.0 | 0.00 | 0.00 | 0.00 | 88 | 1010.0 |
| 20260509121514 | 84 | 310 | 10.0 | 0.0 | 0.00 | 0.00 | 0.00 | 88 | 1009.0 |
| 20260509120021 | 86 | 310 | 10.0 | 0.0 | 0.00 | 0.00 | 0.00 | 89 | 1009.0 |
| 20260509114514 | 86 | 310 | 10.0 | 0.0 | 0.00 | 0.00 | 0.00 | 89 | 1009.0 |
| 20260509113022 | 87 | 310 | 9.0 | 0.0 | 0.00 | 0.00 | 0.00 | 79 | 1009.0 |
| 20260509111514 | 87 | 310 | 9.0 | 0.0 | 0.00 | 0.00 | 0.00 | 79 | 1009.0 |
| 20260509110028 | 87 | 300 | 6.0 | 0.0 | 0.00 | 0.00 | 0.00 | 79 | 1009.0 |
| 20260509104515 | 87 | 300 | 6.0 | 0.0 | 0.00 | 0.00 | 0.00 | 79 | 1009.0 |
| 20260509103020 | 87 | 310 | 7.0 | 0.0 | 0.00 | 0.00 | 0.00 | 74 | 1009.0 |
| 20260509101516 | 87 | 310 | 7.0 | 0.0 | 0.00 | 0.00 | 0.00 | 74 | 1008.0 |
| 20260509100031 | 87 | 330 | 10.0 | 0.0 | 0.00 | 0.00 | 0.00 | 74 | 1008.0 |
| 20260509094516 | 87 | 330 | 10.0 | 0.0 | 0.00 | 0.00 | 0.00 | 74 | 1008.0 |
| 20260509093021 | 88 | 320 | 10.0 | 0.0 | 0.00 | 0.00 | 0.00 | 74 | 1008.0 |
| 20260509091515 | 88 | 320 | 10.0 | 0.0 | 0.00 | 0.00 | 0.00 | 74 | 1007.0 |
| 20260509090024 | 88 | 320 | 9.0 | 0.0 | 0.00 | 0.00 | 0.00 | 74 | 1007.0 |
| 20260509084517 | 89 | 320 | 9.0 | 0.0 | 0.00 | 0.00 | 0.00 | 74 | 1007.0 |
| 20260509083020 | 89 | 320 | 13.0 | 0.0 | 0.00 | 0.00 | 0.00 | 70 | 1007.0 |
| 20260509081518 | 91 | 310 | 13.0 | 0.0 | 0.00 | 0.00 | 0.00 | 70 | 1007.0 |
| 20260509080022 | 90 | 310 | 13.0 | 0.0 | 0.00 | 0.00 | 0.00 | 70 | 1007.0 |
| 20260509074517 | 89 | 310 | 13.0 | 0.0 | 0.00 | 0.00 | 0.00 | 70 | 1007.0 |
| 20260509073021 | 91 | 330 | 11.0 | 0.0 | 0.00 | 0.00 | 0.00 | 66 | 1007.0 |
| 20260509071516 | 92 | 330 | 11.0 | 0.0 | 0.00 | 0.00 | 0.00 | 62 | 1007.0 |
| 20260509070018 | 91 | 350 | 9.0 | 0.0 | 0.00 | 0.00 | 0.00 | 62 | 1007.0 |
| 20260509064518 | 93 | 350 | 9.0 | 0.0 | 0.00 | 0.00 | 0.00 | 62 | 1007.0 |
| 20260509063023 | 92 | 350 | 9.0 | 0.0 | 0.00 | 0.00 | 0.00 | 62 | 1008.0 |
| 20260509061519 | 91 | 350 | 9.0 | 0.0 | 0.00 | 0.00 | 0.00 | 62 | 1008.0 |
| 20260509060020 | 93 | 350 | 11.0 | 0.0 | 0.00 | 0.00 | 0.00 | 62 | 1008.0 |
| 20260509054519 | 92 | 350 | 11.0 | 0.0 | 0.00 | 0.00 | 0.00 | 62 | 1008.0 |
| 20260509053024 | 91 | 20 | 6.0 | 0.0 | 0.00 | 0.00 | 0.00 | 62 | 1008.0 |
| 20260509051516 | 93 | 54 | 5.0 | 4.0 | 0.00 | 0.00 | 0.00 | 64 | 1009.0 |
| 20260509050019 | 93 | 90 | 7.0 | 0.0 | 0.00 | 0.00 | 0.00 | 63 | 1009.0 |
| 20260509044515 | 92 | 90 | 7.0 | 0.0 | 0.00 | 0.00 | 0.00 | 63 | 1009.0 |
| 20260509043017 | 91 | 90 | 7.0 | 0.0 | 0.00 | 0.00 | 0.00 | 62 | 1009.0 |
| 20260509041515 | 90 | 90 | 7.0 | 0.0 | 0.00 | 0.00 | 0.00 | 62 | 1010.0 |
| 20260509040023 | 89 | 90 | 7.0 | 0.0 | 0.00 | 0.00 | 0.00 | 62 | 1010.0 |
| 20260509034513 | 92 | 100 | 10.0 | 0.0 | 0.00 | 0.00 | 0.00 | 66 | 1010.0 |
| 20260509033017 | 91 | 100 | 10.0 | 0.0 | 0.00 | 0.00 | 0.00 | 66 | 1010.0 |
| 20260509031515 | 90 | 100 | 10.0 | 0.0 | 0.00 | 0.00 | 0.00 | 66 | 1011.0 |
| 20260509030021 | 89 | 100 | 10.0 | 0.0 | 0.00 | 0.00 | 0.00 | 66 | 1011.0 |
| 20260509024513 | 88 | 100 | 10.0 | 0.0 | 0.00 | 0.00 | 0.00 | 66 | 1011.0 |
| 20260509023016 | 87 | 90 | 9.0 | 0.0 | 0.00 | 0.00 | 0.00 | 66 | 1011.0 |
| 20260509021512 | 89 | 120 | 9.0 | 0.0 | 0.00 | 0.00 | 0.00 | 70 | 1011.0 |
| 20260509020017 | 88 | 120 | 9.0 | 0.0 | 0.00 | 0.00 | 0.00 | 70 | 1011.0 |
| 20260509014513 | 87 | 120 | 9.0 | 0.0 | 0.00 | 0.00 | 0.00 | 70 | 1011.0 |
| 20260509013014 | 86 | 110 | 7.0 | 0.0 | 0.00 | 0.00 | 0.00 | 70 | 1011.0 |
| 20260509011512 | 86 | 110 | 7.0 | 0.0 | 0.00 | 0.00 | 0.00 | 93 | 1011.0 |
| 20260509010016 | 85 | 100 | 5.0 | 0.0 | 0.00 | 0.00 | 0.00 | 93 | 1011.0 |
| 20260509004512 | 84 | 100 | 5.0 | 0.0 | 0.00 | 0.00 | 0.00 | 94 | 1011.0 |
| 20260509003013 | 83 | 100 | 5.0 | 0.0 | 0.00 | 0.00 | 0.00 | 94 | 1011.0 |
| 20260509001511 | 82 | 100 | 5.0 | 0.0 | 0.00 | 0.00 | 0.00 | 94 | 1010.0 |
| 20260509000015 | 81 | 100 | 5.0 | 0.0 | 0.00 | 0.00 | 0.00 | 94 | 1010.0 |
| 20260508234512 | 80 | 100 | 5.0 | 0.0 | 0.00 | 0.00 | 0.00 | 94 | 1010.0 |
| 20260508233012 | 79 | 110 | 3.0 | 0.0 | 0.00 | 0.00 | 0.00 | 94 | 1010.0 |
| 20260508231507 | 78 | 110 | 3.0 | 0.0 | 0.00 | 0.00 | 0.00 | 94 | 1009.0 |
| 20260508230007 | 80 | 0 | 0.0 | 0.0 | 0.00 | 0.00 | 0.00 | 89 | 1009.0 |
| 20260508224507 | 80 | 0 | 0.0 | 0.0 | 0.00 | 0.00 | 0.00 | 89 | 1009.0 |
| 20260508223007 | 80 | 0 | 0.0 | 0.0 | 0.00 | 0.00 | 0.00 | 89 | 1009.0 |
| 20260508221508 | 80 | 0 | 1.0 | 0.0 | 0.00 | 0.00 | 0.00 | 94 | 1009.0 |
| 20260508220008 | 80 | 0 | 1.0 | 0.0 | 0.00 | 0.00 | 0.00 | 94 | 1009.0 |
| 20260508214508 | 80 | 0 | 1.0 | 0.0 | 0.00 | 0.00 | 0.00 | 94 | 1009.0 |
| 20260508213008 | 80 | 160 | 3.0 | 0.0 | 0.00 | 0.00 | 0.00 | 94 | 1009.0 |
| 20260508211507 | 80 | 160 | 3.0 | 0.0 | 0.00 | 0.00 | 0.00 | 94 | 1009.0 |
| 20260508210011 | 80 | 0 | 1.0 | 0.0 | 0.00 | 0.00 | 0.00 | 94 | 1009.0 |
| 20260508204509 | 80 | 0 | 1.0 | 0.0 | 0.00 | 0.00 | 0.00 | 94 | 1009.0 |
| 20260508203009 | 81 | 0 | 1.0 | 0.0 | 0.00 | 0.00 | 0.00 | 94 | 1009.0 |
| 20260508201508 | 80 | 0 | 1.0 | 0.0 | 0.00 | 0.00 | 0.00 | 94 | 1009.0 |
| 20260508200011 | 81 | 0 | 1.0 | 0.0 | 0.00 | 0.00 | 0.00 | 94 | 1009.0 |